Weather in Aksel

Russia / Republic of Mordovia     54°35′51″N   43°25′04″E
temp.,
°C
wind,
m/s
gust,
m/s
humid.,
%
clouds,
%
prec.,
mm/h
press.,
hPa
HPBL,
m
4 august, wed
wed400:00+18w33898 1.4 101247
03:00+17nw3488100 1.4 101287
06:00+17nw3788100 0.1 1013212
09:00+19nw3674100 0.1 1013369
12:00+25nw56395 0.0 10142024
15:00+25nw463410 0.0 10142467
18:00+23nw46478 0.0 1015424
21:00+18nw225910 0.0 101620
5 august, thu
thu500:00+16nw336233 0.0 101641
03:00+15nw3365100 0.0 101743
06:00+15wnw35665 0.0 1018126
09:00+21nw33470 0.0 1018510
12:00+24nw223732 0.0 10171914
15:00+25wnw2333100 0.0 10172475
18:00+24nnw224321 0.0 101683
21:00+18ese4660100 0.0 101795
6 august, fri
fri600:00+17se466210 0.0 101791
03:00+16sse366197 0.0 101793
06:00+17sse486232 0.0 1017189
09:00+23s584532 0.0 1016675
12:00+27s673696 0.0 10151773
15:00+27s56358 0.0 10141786
18:00+26sse5843100 0.0 1014492
21:00+21sse511546 0.0 1013211
7 august, sat
sat700:00+20sse6145231 0.0 1014283
03:00+19sse5135413 0.0 1014275
06:00+20s6135098 0.0 1014297
09:00+22s6124518 0.0 1014355
12:00+24s6104288 0.0 1015415
15:00+26sse344367 0.0 1014103
18:00+28sse474111 0.0 1014254
21:00+22sse47515 0.0 101598
8 august, sun
sun800:00+20se49606 0.0 1017136
03:00+18se496154 0.0 1018141
06:00+19se41059100 0.0 1018203
09:00+25sse5843100 0.0 1019457
12:00+29sse563565 0.0 1019952
15:00+30sse563189 0.0 10181719
18:00+28sse4741100 0.0 1018224
21:00+23se4652100 0.0 101977